World > North America > United States > Wyoming > Reliance  

Reliance, WY Hourly Weather Updates

Feedback E-mail the Weather

Quick Clicks

Reliance, WY Weather Maps

°F °C°F °C
Reliance Weather Map
UTC Time: 4/14/2024, 02:31
Your Time:

Reliance, WY Regional Weather

Expires:202404140300;;702358
ASUS45 KCYS 140210
RWRWY 

WYOMING REGIONAL WEATHER ROUNDUP
NATIONAL WEATHER SERVICE CHEYENNE WY
800 PM MDT SAT APR 13 2024

NOTE:  "FAIR" INDICATES FEW OR NO CLOUDS BELOW 12,000 FEET
WITH NO SIGNIFICANT WEATHER AND/OR OBSTRUCTIONS TO VISIBILITY.


WYZ021-027>030-104>119-140300-
...SOUTHERN WYOMING...
  
CITY           SKY/WX    TMP DP  RH WIND       PRES   REMARKS
EVANSTON       CLEAR     56  17  21 SW10      30.01F                  
KEMMERER       CLEAR     54  10  17 W5        30.04F                  
FORT BRIDGER   CLEAR     58  13  17 W3        30.05F                  
ROCK SPRINGS   CLOUDY    58  19  22 S12       30.01F                  
DIXON          MOCLDY    58  23  25 CALM      30.06S                  
RAWLINS        PTCLDY    58  15  18 SW8       30.03S                  
SARATOGA       PTCLDY    54  18  24 SW10      30.06F                  
LARAMIE        PTCLDY    55  21  26 W9        30.06S                  
CHEYENNE       MOCLDY    61  55  81 NW5       30.01R                  
TORRINGTON     PTCLDY    68  24  19 NW5       29.87R                  
PINE BLUFFS      N/A     55  27  33 E3        29.97S                  

$$
  

SKY/WX - Weather  TMP - Temperature  DP - Dew Point  RH - Humidity
WIND - Wind Direction/Speed PRES - Barometric Pressure VSB - Visibility
WCI - Wind Chill Index E13G22 Wind - East Wind 13 mph/Gusts of 22 mph

Trending Headlines

Trending Entertainment Headlines

Reliance Radar Loop

Use the map search tool if you want to place a location marker on the radar map...

Reliance Quick Facts

National Two Day Weather Forecast


E-mail the Reliance Weather Forecast

Voice your opinion or tell us about page issues...